Simultaneous Nadir Overpasses (SNOs) Predictions

Prediction of SNOs between METOP-C and LANDSAT-8 Satellite Orbit:

Table of predicted SNOs for the next 14.0 days since TLE Epoch: 8/31/2019
Index Date (METOP-C) Time (METOP-C) Lat,Lon (METOP-C) SZA (METOP-C ) Date (LANDSAT-8) Time (LANDSAT-8) Lat,Lon (LANDSAT-8) SZA (LANDSAT-8 ) Distance(km) Time Diff (sec)
1 09/02/2019 10:05:56 -81.13,-111.52 104.72 09/02/2019 10:06:07 -81.13,-111.33 104.70 3.21 11
2 09/02/2019 10:56:34 81.17, 56.88 75.43 09/02/2019 10:55:32 81.16, 56.72 75.38 2.78 62
3 09/05/2019 05:40:17 -81.15, -44.59 103.61 09/05/2019 05:40:22 -81.15, -44.59 103.60 0.34 5
4 09/05/2019 06:30:56 81.17, 123.36 76.49 09/05/2019 06:29:47 81.18, 123.44 76.47 1.56 69
5 09/08/2019 00:24:00 81.13,-146.17 77.37 09/08/2019 00:25:12 81.12,-146.27 77.39 1.81 72
6 09/08/2019 01:14:40 -81.14, 21.58 102.57 09/08/2019 01:14:38 -81.15, 21.77 102.55 3.25 2
7 09/08/2019 02:04:21 81.20,-147.84 80.31 09/08/2019 02:03:12 81.82,-149.52 80.33 74.21 69
8 09/10/2019 19:58:21 81.13, -79.69 78.46 09/10/2019 19:59:26 81.14, -79.58 78.51 2.02 65
9 09/10/2019 20:49:01 -81.15, 88.13 101.47 09/10/2019 20:48:53 -81.14, 88.11 101.48 0.63 8
10 09/13/2019 15:32:43 81.13, -13.20 79.56 09/13/2019 15:33:42 81.13, -13.27 79.58 1.20 59




NCC Satellite Simultaneous Nadir Overpasses (SNOs) Prediction Service
